Valdosta, GA

2:42 AM EST on December 16, 2019 (GMT -0500)
Moody Air Force Base

Weather History for KVAD - October, 2019

Change the Weather History Date:

Sunday, October 20, 2019

  Actual Average Record
Temperature  
Mean Temperature 68 °F -  
Max Temperature 75 °F 76 °F 98 °F (2005)
Min Temperature 60 °F 55 °F 41 °F (1996)
Cooling Degree Days 3    
Growing Degree Days 18 (Base 50)    
Moisture  
Dew Point 65 °F    
Average Humidity 97    
Maximum Humidity 100    
Minimum Humidity 73    
Precipitation  
Precipitation 0.01 in - - ()
Sea Level Pressure  
Sea Level Pressure 29.85 in    
Wind  
Wind Speed 10 mph (West)    
Max Wind Speed 16 mph    
Max Gust Speed 24 mph    
Visibility 10 miles    
Events Rain    
Averages and records for this station are not official NWS values.
T = Trace of Precipitation, MM = Missing Value Source: NWS Daily Summary

Daily Weather History Graph

Daily Weather History Graph

Search for Another Location

Airport or City:

Astronomy

Oct. 20, 2019 Rise Set
Actual Time 7:38 AM EDT 6:55 PM EDT
Civil Twilight 7:14 AM EDT 7:20 PM EDT
Nautical Twilight 6:46 AM EDT 7:48 PM EDT
Astronomical Twilight 6:17 AM EDT 8:16 PM EDT
Moon No Moon Rise 1:50 PM EDT (10/20)
Length of Visible Light 12h 06m
Length of Day
11h 17m
Waning Gibbous, 59% of the Moon is Illuminated
Oct 20
Waning Gibbous
Oct 21
Last Quarter
Oct 27
New
Nov 4
First Quarter
Nov 12
Full

Hourly Weather History & Observations

Time (EDT) Temp. Dew Point Humidity Pressure Visibility Wind Dir Wind Speed Gust Speed Precip Events Conditions
12:28 AM 69.8 °F 69.8 °F 100% 29.71 in 10.0 mi WSW 11.5 mph - N/A Rain Light Rain
12:31 AM 69.8 °F 69.8 °F 100% 29.71 in 10.0 mi WSW 9.2 mph - N/A   Overcast
12:33 AM 68.0 °F 68.0 °F 100% 29.70 in 10.0 mi WSW 9.2 mph - N/A   Overcast
12:49 AM 68.0 °F 68.0 °F 100% 29.72 in 10.0 mi WSW 12.7 mph - N/A   Mostly Cloudy
12:53 AM 68.0 °F 68.0 °F 100% 29.72 in 10.0 mi WSW 16.1 mph 21.9 mph N/A   Overcast
12:56 AM 68.2 °F 68.2 °F 100% 29.72 in 10.0 mi WSW 15.0 mph 24.2 mph 0.00 in   Overcast
12:58 AM 68.0 °F 68.0 °F 100% 29.72 in 10.0 mi WSW 11.5 mph 24.2 mph N/A   Overcast
1:30 AM 66.2 °F 66.2 °F 100% 29.73 in 10.0 mi WSW 12.7 mph - N/A Rain Light Rain
1:36 AM 66.2 °F 66.2 °F 100% 29.73 in 10.0 mi WSW 10.4 mph 18.4 mph N/A Rain Light Rain
1:41 AM 66.2 °F 66.2 °F 100% 29.73 in 10.0 mi West 12.7 mph 18.4 mph N/A   Overcast
1:47 AM 66.2 °F 66.2 °F 100% 29.73 in 10.0 mi WSW 10.4 mph - N/A   Overcast
1:56 AM 66.2 °F 66.2 °F 100% 29.73 in 10.0 mi West 12.7 mph - 0.00 in   Overcast
2:16 AM 66.2 °F 66.2 °F 100% 29.75 in 10.0 mi West 10.4 mph - N/A   Overcast
2:26 AM 66.2 °F 66.2 °F 100% 29.75 in 10.0 mi West 11.5 mph - N/A   Overcast
2:36 AM 66.2 °F 66.2 °F 100% 29.75 in 10.0 mi West 9.2 mph - N/A   Overcast
2:56 AM 65.1 °F 65.1 °F 100% 29.75 in 10.0 mi WSW 9.2 mph - 0.01 in   Overcast
3:00 AM 64.4 °F 64.4 °F 100% 29.75 in 10.0 mi WSW 10.4 mph - N/A   Overcast
3:02 AM 64.4 °F 64.4 °F 100% 29.75 in 10.0 mi WSW 12.7 mph 19.6 mph N/A   Overcast
3:26 AM 64.4 °F 64.4 °F 100% 29.75 in 10.0 mi West 9.2 mph - N/A   Overcast
3:56 AM 64.0 °F 64.0 °F 100% 29.75 in 10.0 mi West 11.5 mph - N/A   Overcast
4:06 AM 64.4 °F 64.4 °F 100% 29.76 in 10.0 mi West 11.5 mph - N/A   Overcast
4:40 AM 62.6 °F 62.6 °F 100% 29.78 in 10.0 mi West 11.5 mph 18.4 mph N/A   Overcast
4:56 AM 62.6 °F 62.6 °F 100% 29.78 in 10.0 mi West 11.5 mph 18.4 mph N/A   Overcast
5:04 AM 62.6 °F 62.6 °F 100% 29.78 in 10.0 mi West 13.8 mph - N/A   Overcast
5:42 AM 62.6 °F 62.6 °F 100% 29.81 in 10.0 mi West 10.4 mph - N/A   Overcast
5:56 AM 62.1 °F 62.1 °F 100% 29.81 in 10.0 mi West 8.1 mph - N/A   Overcast
6:56 AM 62.1 °F 62.1 °F 100% 29.85 in 10.0 mi West 9.2 mph - N/A   Overcast
7:16 AM 62.6 °F 62.6 °F 100% 29.86 in 10.0 mi West 6.9 mph - N/A   Overcast
7:56 AM 61.9 °F 61.9 °F 100% 29.88 in 10.0 mi West 9.2 mph - N/A   Overcast
8:30 AM 62.6 °F 62.6 °F 100% 29.88 in 10.0 mi West 6.9 mph - N/A   Overcast
8:54 AM 62.6 °F 62.6 °F 100% 29.91 in 10.0 mi West 9.2 mph - N/A   Overcast
8:56 AM 61.9 °F 61.9 °F 100% 29.91 in 10.0 mi West 8.1 mph - N/A   Overcast
9:12 AM 62.6 °F 62.6 °F 100% 29.91 in 10.0 mi West 6.9 mph - N/A   Overcast
9:30 AM 62.6 °F 62.6 °F 100% 29.93 in 10.0 mi WNW 10.4 mph - N/A   Overcast
9:56 AM 62.2 °F 62.2 °F 100% 29.94 in 10.0 mi WNW 11.5 mph - N/A   Overcast
10:56 AM 64.6 °F 64.2 °F 99% 29.95 in 10.0 mi WNW 9.2 mph - N/A   Overcast
11:06 AM 64.4 °F 64.4 °F 100% 29.95 in 10.0 mi NW 8.1 mph - N/A   Overcast
11:14 AM 64.4 °F 64.4 °F 100% 29.95 in 10.0 mi NW 9.2 mph - N/A   Overcast
11:20 AM 64.4 °F 64.4 °F 100% 29.95 in 10.0 mi NW 8.1 mph - N/A   Overcast
11:22 AM 64.4 °F 64.4 °F 100% 29.96 in 10.0 mi NNW 6.9 mph - N/A   Overcast
11:56 AM 65.8 °F 63.7 °F 93% 29.96 in 10.0 mi WNW 8.1 mph - N/A   Overcast
12:26 PM 66.2 °F 64.4 °F 94% 29.96 in 10.0 mi WNW 5.8 mph - N/A   Overcast
12:56 PM 67.5 °F 63.7 °F 88% 29.96 in 10.0 mi West 6.9 mph - N/A   Overcast
1:56 PM 69.3 °F 64.6 °F 85% 29.95 in 10.0 mi WNW 4.6 mph - N/A   Overcast
2:28 PM 71.6 °F 64.4 °F 78% 29.94 in 10.0 mi WNW 4.6 mph - N/A   Mostly Cloudy
2:56 PM 72.3 °F 65.5 °F 79% 29.93 in 10.0 mi SW 3.5 mph - N/A   Partly Cloudy
3:56 PM 74.1 °F 66.0 °F 76% 29.93 in 10.0 mi Calm Calm - N/A   Partly Cloudy
4:56 PM 75.7 °F 66.4 °F 73% 29.93 in 10.0 mi NW 5.8 mph - N/A   Clear
5:56 PM 74.3 °F 65.8 °F 75% 29.93 in 10.0 mi Calm Calm - N/A   Clear
6:56 PM 72.0 °F 65.8 °F 81% 29.93 in 10.0 mi Calm Calm - N/A   Clear
7:56 PM 65.8 °F 65.8 °F 100% 29.95 in 10.0 mi Calm Calm - N/A   Clear
8:56 PM 64.4 °F 64.4 °F 100% 29.96 in 10.0 mi Calm Calm - N/A   Clear
9:56 PM 63.0 °F 63.0 °F 100% 29.97 in 10.0 mi Calm Calm - N/A   Clear
10:56 PM 61.7 °F 61.7 °F 100% 29.99 in 10.0 mi Calm Calm - N/A   Clear
11:56 PM 60.8 °F 60.8 °F 100% 29.99 in 10.0 mi Calm Calm - N/A   Clear